DW3003 Weather Reports


Display with metric or nautical units.
time (UTC)temp
F
wind
direction
speed
MPH
gust
MPH
rain 1hr
in
rain 24hr
in
rain mn
in
humidity
%
barometer
mb
20260506164558 56 154 18.0 27.0 0.00 0.00 0.00 84 1011.1
20260506164057 56 156 17.0 27.0 0.00 0.00 0.00 85 1011.2
20260506163558 56 149 18.0 27.0 0.00 0.00 0.00 85 1011.4
20260506163102 56 156 16.0 27.0 0.00 0.00 0.00 85 1011.4
20260506162559 56 156 17.0 24.0 0.00 0.00 0.00 85 1011.3
20260506162101 56 167 16.0 24.0 0.00 0.00 0.00 85 1011.4
20260506161609 56 198 16.0 25.0 0.00 0.00 0.00 85 1011.4
20260506161058 56 175 15.0 26.0 0.00 0.00 0.00 85 1011.5
20260506160558 56 164 16.0 26.0 0.00 0.00 0.00 84 1011.6
20260506160105 57 174 18.0 26.0 0.00 0.00 0.00 84 1011.7
20260506155558 57 167 17.0 26.0 0.00 0.00 0.00 83 1011.9
20260506155058 57 164 17.0 26.0 0.00 0.00 0.00 83 1012.1
20260506154601 57 152 16.0 24.0 0.00 0.00 0.00 82 1012.1
20260506154058 57 173 15.0 23.0 0.00 0.00 0.00 83 1012.2
20260506153558 57 166 16.0 25.0 0.00 0.00 0.00 83 1012.2
20260506153058 57 169 14.0 25.0 0.00 0.00 0.00 84 1012.1
20260506152557 56 152 14.0 22.0 0.00 0.00 0.00 84 1012.1
20260506152058 56 175 12.0 21.0 0.00 0.00 0.00 84 1012.1
20260506151640 56 165 11.0 18.0 0.00 0.00 0.00 84 1012.3
20260506151059 56 196 10.0 18.0 0.00 0.00 0.00 84 1012.3
20260506150601 56 182 11.0 19.0 0.00 0.00 0.00 84 1012.3
20260506150109 57 165 11.0 19.0 0.00 0.00 0.00 83 1012.3
20260506145559 57 178 11.0 20.0 0.00 0.00 0.00 83 1012.4
20260506145058 57 157 12.0 22.0 0.00 0.00 0.00 82 1012.3
20260506144614 58 201 11.0 22.0 0.00 0.00 0.00 82 1012.3
20260506144058 58 163 11.0 25.0 0.00 0.00 0.00 82 1012.3
20260506143559 58 162 12.0 25.0 0.00 0.00 0.00 83 1012.2
20260506143110 58 169 12.0 25.0 0.00 0.00 0.00 82 1012.3
20260506142557 58 179 12.0 25.0 0.00 0.00 0.00 83 1012.3
20260506142057 57 193 11.0 25.0 0.00 0.00 0.00 84 1012.4
20260506141609 57 179 11.0 23.0 0.00 0.00 0.00 83 1012.4
20260506141058 57 165 14.0 23.0 0.00 0.00 0.00 84 1012.4
20260506140559 57 163 13.0 20.0 0.00 0.00 0.00 84 1012.4
20260506140127 57 156 11.0 22.0 0.00 0.00 0.00 84 1012.3
20260506135559 57 155 12.0 22.0 0.00 0.00 0.00 84 1012.4
20260506135101 56 162 12.0 22.0 0.00 0.00 0.00 84 1012.4
20260506134603 57 153 11.0 19.0 0.00 0.00 0.00 84 1012.3
20260506134058 56 177 9.0 19.0 0.00 0.00 0.00 84 1012.4
20260506133558 56 160 9.0 18.0 0.00 0.00 0.00 84 1012.4
20260506133133 56 182 8.0 17.0 0.00 0.00 0.00 85 1012.4
20260506132558 56 181 11.0 17.0 0.00 0.00 0.00 85 1012.3
20260506132058 56 171 10.0 18.0 0.00 0.00 0.00 85 1012.4
20260506131558 56 169 11.0 18.0 0.00 0.00 0.00 85 1012.3
20260506131059 56 176 12.0 20.0 0.00 0.00 0.00 84 1012.4
20260506130558 57 196 11.0 20.0 0.00 0.00 0.00 84 1012.4
20260506130138 56 164 12.0 21.0 0.00 0.00 0.00 84 1012.5
20260506125558 56 160 10.0 23.0 0.00 0.00 0.00 85 1012.5
20260506125057 56 167 14.0 23.0 0.00 0.00 0.00 86 1012.5
20260506124556 56 161 15.0 23.0 0.00 0.00 0.00 85 1012.4
20260506124058 56 182 15.0 25.0 0.00 0.00 0.00 85 1012.5
20260506123558 56 157 13.0 25.0 0.00 0.00 0.00 85 1012.5
20260506123058 56 142 14.0 25.0 0.00 0.00 0.00 85 1012.5
20260506122559 56 175 12.0 23.0 0.00 0.00 0.00 86 1012.5
20260506122057 56 188 16.0 23.0 0.00 0.00 0.00 86 1012.4
20260506121600 55 151 14.0 22.0 0.00 0.00 0.00 86 1012.6
20260506121058 55 155 14.0 20.0 0.00 0.00 0.00 86 1012.4
20260506120600 55 181 11.0 20.0 0.00 0.00 0.00 86 1012.4
20260506120100 55 200 11.0 20.0 0.00 0.00 0.00 86 1012.4
20260506115557 55 173 10.0 19.0 0.00 0.00 0.00 86 1012.4
20260506115058 55 184 11.0 19.0 0.00 0.00 0.00 86 1012.4
20260506114601 55 186 9.0 15.0 0.00 0.00 0.00 86 1012.5
20260506114058 55 188 8.0 15.0 0.00 0.00 0.00 87 1012.7
20260506113557 55 181 6.0 13.0 0.00 0.00 0.00 87 1012.7
20260506113100 54 194 7.0 19.0 0.00 0.00 0.00 87 1012.7
20260506112559 54 200 5.0 19.0 0.00 0.00 0.00 87 1012.7
20260506112057 55 225 8.0 16.0 0.00 0.00 0.00 87 1012.7
20260506111601 55 179 8.0 13.0 0.00 0.00 0.00 87 1012.6
20260506111059 55 186 5.0 13.0 0.00 0.00 0.00 87 1012.6
20260506110558 55 157 8.0 14.0 0.00 0.00 0.00 87 1012.5
20260506110104 55 212 6.0 14.0 0.00 0.00 0.00 87 1012.5
20260506105558 55 169 5.0 14.0 0.00 0.00 0.00 87 1012.5
20260506105059 55 173 5.0 14.0 0.00 0.00 0.00 88 1012.6
20260506104605 54 193 7.0 15.0 0.00 0.00 0.00 88 1012.5
20260506104058 54 165 7.0 15.0 0.00 0.00 0.00 88 1012.5
20260506103558 54 179 6.0 18.0 0.00 0.00 0.00 88 1012.5
20260506103106 54 193 8.0 18.0 0.00 0.00 0.00 88 1012.4
20260506102558 54 203 7.0 17.0 0.00 0.00 0.00 88 1012.5
20260506102101 54 184 7.0 17.0 0.00 0.00 0.00 88 1012.4
20260506101600 54 169 10.0 17.0 0.00 0.00 0.00 88 1012.4
20260506101059 54 164 7.0 17.0 0.00 0.00 0.00 88 1012.3
20260506100557 54 180 8.0 17.0 0.00 0.00 0.00 88 1012.2
20260506100110 54 192 7.0 16.0 0.00 0.00 0.00 88 1012.3
20260506095558 54 189 9.0 16.0 0.00 0.00 0.00 88 1012.3
20260506095059 54 179 7.0 15.0 0.00 0.00 0.00 89 1012.2
20260506094606 54 193 8.0 13.0 0.00 0.00 0.00 89 1012.2
20260506094058 54 136 7.0 15.0 0.00 0.00 0.00 89 1012.2
20260506093558 54 145 8.0 15.0 0.00 0.00 0.00 89 1012.3
20260506093056 54 163 6.0 14.0 0.00 0.00 0.00 89 1012.4
20260506092558 54 175 3.0 12.0 0.00 0.00 0.00 89 1012.4
20260506092058 54 194 5.0 12.0 0.00 0.00 0.00 89 1012.5
20260506091608 54 204 4.0 10.0 0.00 0.00 0.00 89 1012.5
20260506091057 54 194 3.0 11.0 0.00 0.00 0.00 89 1012.5
20260506090557 54 185 4.0 11.0 0.00 0.00 0.00 89 1012.6
20260506090056 54 196 2.0 10.0 0.00 0.00 0.00 89 1012.7
20260506085557 54 180 3.0 13.0 0.00 0.00 0.00 89 1012.7
20260506085101 54 170 3.0 13.0 0.00 0.00 0.00 89 1012.7
20260506084600 54 206 2.0 10.0 0.00 0.00 0.00 89 1012.9
20260506084059 54 221 4.0 12.0 0.00 0.00 0.00 89 1012.9
20260506083558 54 177 2.0 12.0 0.00 0.00 0.00 89 1013.0
20260506083100 54 223 5.0 12.0 0.00 0.00 0.00 89 1013.0
20260506082558 54 224 4.0 12.0 0.00 0.00 0.00 88 1013.0
20260506082059 54 192 4.0 21.0 0.00 0.00 0.00 88 1013.0
20260506081608 54 196 7.0 21.0 0.00 0.00 0.00 88 1013.0
20260506081058 55 195 10.0 21.0 0.00 0.00 0.00 88 1013.0
20260506080558 55 169 10.0 19.0 0.00 0.00 0.00 88 1013.1
20260506073058 55 240 4.0 10.0 0.00 0.00 0.00 88 1013.2
20260506072557 55 206 3.0 10.0 0.00 0.00 0.00 87 1013.2
20260506072059 55 238 2.0 10.0 0.00 0.00 0.00 87 1013.1
20260506071557 55 184 4.0 10.0 0.00 0.00 0.00 87 1013.1
20260506071101 55 202 3.0 11.0 0.00 0.00 0.00 87 1013.0
20260506070558 55 197 3.0 11.0 0.00 0.00 0.00 87 1013.0
20260506062058 55 206 9.0 21.0 0.00 0.00 0.00 87 1012.9
20260506061556 55 177 10.0 20.0 0.00 0.00 0.00 87 1012.8
20260506061058 55 186 9.0 20.0 0.00 0.00 0.00 87 1012.9
20260506060557 55 152 9.0 20.0 0.00 0.00 0.00 87 1012.9
20260506051056 54 214 7.0 12.0 0.00 0.00 0.00 87 1013.4
20260506050556 54 192 5.0 13.0 0.00 0.00 0.00 87 1013.3
20260506045055 55 203 5.0 10.0 0.00 0.00 0.00 87 1013.5
20260506044603 55 0 1.0 12.0 0.00 0.00 0.00 87 1013.5
20260506044055 55 165 3.0 12.0 0.00 0.00 0.00 87 1013.5
20260506043556 55 177 5.0 12.0 0.00 0.00 0.00 87 1013.6
20260506043107 55 250 2.0 9.0 0.00 0.00 0.00 86 1013.5
20260506042556 55 250 4.0 12.0 0.00 0.00 0.00 86 1013.6
20260506042057 55 181 4.0 12.0 0.00 0.00 0.00 86 1013.6
20260506041606 55 173 5.0 12.0 0.00 0.00 0.00 86 1013.5
20260506041056 55 198 6.0 14.0 0.00 0.00 0.00 86 1013.6
20260506040556 55 167 7.0 14.0 0.00 0.00 0.00 86 1013.6
20260506040100 55 176 6.0 13.0 0.00 0.00 0.00 86 1013.5
20260506035556 55 181 5.0 14.0 0.00 0.00 0.00 86 1013.6
20260506035055 55 182 8.0 15.0 0.00 0.00 0.00 86 1013.6
20260506034614 55 187 7.0 15.0 0.00 0.00 0.00 86 1013.6
20260506034055 55 186 6.0 15.0 0.00 0.00 0.00 86 1013.6
20260506033555 55 168 6.0 15.0 0.00 0.00 0.00 86 1013.7
20260506033101 55 211 8.0 15.0 0.00 0.00 0.00 86 1013.7
20260506032556 55 210 6.0 14.0 0.00 0.00 0.00 86 1013.6
20260506032056 55 190 8.0 14.0 0.00 0.00 0.00 86 1013.6
20260506031604 55 191 7.0 13.0 0.00 0.00 0.00 85 1013.5
20260506031058 55 157 5.0 13.0 0.00 0.00 0.00 85 1013.6
20260506030556 55 209 6.0 12.0 0.00 0.00 0.00 85 1013.6
20260506030058 55 215 6.0 13.0 0.00 0.00 0.00 85 1013.6
20260506025557 55 203 6.0 13.0 0.00 0.00 0.00 85 1013.7
20260506025057 55 205 5.0 14.0 0.00 0.00 0.00 85 1013.6
20260506024559 55 213 5.0 14.0 0.00 0.00 0.00 85 1013.5
20260506024059 55 208 7.0 14.0 0.00 0.00 0.00 84 1013.6
20260506023558 55 181 6.0 17.0 0.00 0.00 0.00 84 1013.5
20260506023105 55 196 7.0 17.0 0.00 0.00 0.00 84 1013.6
20260506022558 55 188 6.0 14.0 0.00 0.00 0.00 84 1013.5
20260506022058 55 195 6.0 14.0 0.00 0.00 0.00 84 1013.5
20260506021557 55 202 7.0 16.0 0.00 0.00 0.00 84 1013.4
20260506021100 55 200 8.0 16.0 0.00 0.00 0.00 84 1013.4
20260506020557 55 184 8.0 15.0 0.00 0.00 0.00 84 1013.4
20260506020057 55 190 7.0 17.0 0.00 0.00 0.00 83 1013.3
20260506015558 55 172 9.0 17.0 0.00 0.00 0.00 83 1013.3
20260506015102 56 208 9.0 17.0 0.00 0.00 0.00 83 1013.2
20260506014557 56 178 10.0 23.0 0.00 0.00 0.00 82 1013.1
20260506014057 56 179 12.0 23.0 0.00 0.00 0.00 82 1013.1
20260506013558 56 198 14.0 23.0 0.00 0.00 0.00 82 1013.0
20260506013109 56 184 13.0 22.0 0.00 0.00 0.00 82 1012.9
20260506012559 56 179 11.0 24.0 0.00 0.00 0.00 82 1012.9
20260506012102 56 173 13.0 24.0 0.00 0.00 0.00 81 1012.9
20260506011600 56 176 15.0 24.0 0.00 0.00 0.00 81 1012.9
20260506011059 56 184 14.0 24.0 0.00 0.00 0.00 81 1012.7
20260506010559 56 161 14.0 24.0 0.00 0.00 0.00 81 1012.6
20260506010119 56 159 14.0 24.0 0.00 0.00 0.00 81 1012.5
20260506005558 56 182 13.0 24.0 0.00 0.00 0.00 81 1012.5
20260506005059 56 155 15.0 24.0 0.00 0.00 0.00 81 1012.4
20260506004602 56 192 15.0 24.0 0.00 0.00 0.00 80 1012.3
20260506004058 56 200 13.0 25.0 0.00 0.00 0.00 81 1012.2
20260506003558 56 184 13.0 25.0 0.00 0.00 0.00 80 1012.3
20260506003126 56 161 14.0 24.0 0.00 0.00 0.00 80 1012.2
20260506002557 56 181 15.0 25.0 0.00 0.00 0.00 80 1012.1
20260506002058 56 144 13.0 25.0 0.00 0.00 0.00 80 1012.0
20260506001615 56 165 15.0 25.0 0.00 0.00 0.00 79 1012.0
20260506001058 56 176 14.0 23.0 0.00 0.00 0.00 79 1012.1
20260506000559 56 165 12.0 22.0 0.00 0.00 0.00 80 1012.0
20260505235558 56 171 15.0 25.0 0.00 0.00 0.00 79 1011.8
20260505235057 56 175 15.0 25.0 0.00 0.00 0.00 79 1011.7
20260505234558 56 166 17.0 25.0 0.00 0.00 0.00 79 1011.5
20260505234100 56 194 16.0 26.0 0.00 0.00 0.00 79 1011.5
20260505233557 56 183 18.0 26.0 0.00 0.00 0.00 79 1011.4
20260505233123 56 176 17.0 25.0 0.00 0.00 0.00 79 1011.4
20260505232556 56 163 15.0 28.0 0.00 0.00 0.00 79 1011.2
20260505232056 56 172 16.0 28.0 0.00 0.00 0.00 79 1011.2
20260505231558 56 154 17.0 28.0 0.00 0.00 0.00 80 1011.1
20260505231055 56 192 15.0 28.0 0.00 0.00 0.00 80 1011.1
20260505230555 56 165 15.0 27.0 0.00 0.00 0.00 80 1011.1
20260505230059 56 194 16.0 27.0 0.00 0.00 0.00 80 1011.0
20260505225557 56 167 14.0 25.0 0.00 0.00 0.00 80 1011.1
20260505225057 56 160 16.0 25.0 0.00 0.00 0.00 80 1011.2
20260505224558 56 167 16.0 25.0 0.00 0.00 0.00 80 1011.1
20260505224056 56 194 13.0 26.0 0.00 0.00 0.00 80 1011.1
20260505223556 56 164 16.0 26.0 0.00 0.00 0.00 80 1011.0
20260505223058 56 156 15.0 27.0 0.00 0.00 0.00 80 1011.0
20260505222556 56 154 17.0 27.0 0.00 0.00 0.00 80 1011.0
20260505222056 56 204 15.0 25.0 0.00 0.00 0.00 80 1011.0
20260505221600 57 170 15.0 28.0 0.00 0.00 0.00 79 1011.0
20260505221056 57 185 15.0 28.0 0.00 0.00 0.00 80 1010.9
20260505220557 57 158 17.0 30.0 0.00 0.00 0.00 80 1010.9
20260505220100 57 164 17.0 30.0 0.00 0.00 0.00 80 1010.9
20260505215600 57 154 15.0 24.0 0.00 0.00 0.00 80 1010.9
20260505215056 57 191 13.0 29.0 0.00 0.00 0.00 80 1010.9
20260505214624 57 174 16.0 29.0 0.00 0.00 0.00 80 1010.8
20260505214056 57 195 16.0 24.0 0.00 0.00 0.00 80 1010.8
20260505213556 56 168 15.0 24.0 0.00 0.00 0.00 80 1010.8
20260505213102 56 161 15.0 28.0 0.00 0.00 0.00 80 1010.6
20260505212556 56 141 15.0 28.0 0.00 0.00 0.00 80 1010.6
20260505212058 56 151 14.0 28.0 0.00 0.00 0.00 79 1010.7
20260505211558 56 169 15.0 26.0 0.00 0.00 0.00 80 1010.8
20260505211057 56 178 17.0 25.0 0.00 0.00 0.00 80 1010.7
20260505210557 56 172 13.0 24.0 0.00 0.00 0.00 79 1010.7
20260505210101 57 178 9.0 24.0 0.00 0.00 0.00 80 1010.8
20260505205556 57 167 10.0 20.0 0.00 0.00 0.00 79 1010.7
20260505205057 57 160 11.0 22.0 0.00 0.00 0.00 79 1010.7
20260505204603 57 172 13.0 23.0 0.00 0.00 0.00 80 1010.7
20260505204056 57 177 13.0 23.0 0.00 0.00 0.00 80 1010.8
20260505203558 57 192 11.0 21.0 0.00 0.00 0.00 79 1010.8
20260505203103 57 187 13.0 21.0 0.00 0.00 0.00 80 1010.8
20260505202558 57 161 12.0 20.0 0.00 0.00 0.00 78 1010.8
20260505202058 57 180 11.0 20.0 0.00 0.00 0.00 79 1010.9
20260505201610 57 204 10.0 18.0 0.00 0.00 0.00 80 1010.8
20260505201057 57 181 12.0 18.0 0.00 0.00 0.00 79 1010.8
20260505200558 57 177 10.0 22.0 0.00 0.00 0.00 81 1011.0
20260505195557 56 159 12.0 22.0 0.00 0.00 0.00 81 1011.3
20260505195057 56 158 11.0 20.0 0.00 0.00 0.00 81 1011.4
20260505194558 56 180 12.0 20.0 0.00 0.00 0.00 81 1011.4
20260505194058 57 190 10.0 22.0 0.00 0.00 0.00 80 1011.5
20260505193558 56 171 14.0 22.0 0.00 0.00 0.00 80 1011.6
20260505193103 57 164 13.0 20.0 0.00 0.00 0.00 79 1011.6
20260505192558 57 192 15.0 23.0 0.00 0.00 0.00 81 1011.8
20260505192100 57 165 14.0 23.0 0.00 0.00 0.00 80 1011.8
20260505191606 57 150 13.0 22.0 0.00 0.00 0.00 80 1011.9
20260505191101 57 187 10.0 22.0 0.00 0.00 0.00 80 1012.1
20260505190558 57 191 10.0 19.0 0.00 0.00 0.00 81 1012.1
20260505185557 56 168 14.0 24.0 0.00 0.00 0.00 81 1012.3
20260505185058 56 189 14.0 24.0 0.00 0.00 0.00 81 1012.4
20260505184603 57 154 12.0 20.0 0.00 0.00 0.00 80 1012.3
20260505184058 57 199 12.0 19.0 0.00 0.00 0.00 81 1012.4
20260505183557 57 194 10.0 20.0 0.00 0.00 0.00 82 1012.5
20260505183124 56 159 12.0 23.0 0.00 0.00 0.00 83 1012.5
20260505182558 56 164 15.0 23.0 0.00 0.00 0.00 82 1012.6
20260505182059 56 177 14.0 21.0 0.00 0.00 0.00 83 1012.5
20260505181557 56 146 14.0 27.0 0.00 0.00 0.00 82 1012.5
20260505181101 56 162 15.0 27.0 0.00 0.00 0.00 83 1012.4
20260505180558 55 163 17.0 27.0 0.00 0.00 0.00 82 1012.5
20260505180058 55 163 16.0 24.0 0.00 0.00 0.00 83 1012.5
20260505175558 56 190 16.0 24.0 0.00 0.00 0.00 83 1012.5
20260505175058 56 171 12.0 22.0 0.00 0.00 0.00 83 1012.5
20260505174558 56 197 14.0 22.0 0.00 0.00 0.00 83 1012.7
20260505174058 56 152 14.0 21.0 0.00 0.00 0.00 83 1012.6
20260505173556 56 167 13.0 20.0 0.00 0.00 0.00 82 1012.6
20260505173104 56 149 13.0 21.0 0.00 0.00 0.00 84 1012.6
20260505172559 56 154 12.0 21.0 0.00 0.00 0.00 81 1012.5
20260505172055 56 150 12.0 21.0 0.00 0.00 0.00 82 1012.5
20260505171601 56 184 12.0 22.0 0.00 0.00 0.00 84 1012.5
20260505171057 55 191 16.0 24.0 0.00 0.00 0.00 84 1012.5
20260505170556 55 190 17.0 24.0 0.00 0.00 0.00 84 1012.4
20260505170058 55 165 17.0 23.0 0.00 0.00 0.00 84 1012.7
20260505165600 55 165 16.0 23.0 0.00 0.00 0.00 83 1012.7
20260505165056 55 147 15.0 24.0 0.00 0.00 0.00 84 1012.7